Weather in Shaitik

Russia / Novosibirsk Oblast     54°38′52″N   77°35′05″E
temp.,
°C
wind,
m/s
gust,
m/s
humid.,
%
clouds,
%
prec.,
mm/h
press.,
hPa
HPBL,
m
26 february, fri
fri2601:00−28wsw559875 0.0 102152
04:00−29wsw699984 0.0 1023134
07:00−28wsw699891 0.1 1026195
10:00−30wsw6998100 0.0 1029211
13:00−28wsw689489 0.0 1031310
16:00−25wsw699184 0.0 1032477
19:00−26sw559788 0.0 103366
22:00−28sw579894 0.0 103497
27 february, sat
sat2701:00−28sw469897 0.0 1035112
04:00−29sw4697100 0.0 1034137
07:00−31sw449896 0.0 103535
10:00−31ssw449890 0.0 103666
13:00−28ssw459584 0.0 1036227
16:00−26ssw459694 0.0 1036252
19:00−28s349889 0.0 103630
22:00−29s459888 0.0 103641
28 february, sun
sun2801:00−29sse459991 0.0 103541
04:00−30sse459992 0.0 103447
07:00−29se569994 0.0 103276
10:00−25se71096100 0.0 1030225
13:00−21se71093100 0.0 1028281
16:00−17se8118998 0.0 1025356
19:00−15se8129399 0.1 1021427
22:00−12ese81293100 0.3 1018307
1 march, mon
mon101:00−8ese81294100 1.1 1013354
04:00−5ese81195100 1.4 1008324
07:00−3ese5797100 3.9 1006183
10:00−3nne1397100 1.1 1005116
13:00−3wnw3592100 1.4 1007361
16:00−3w3490100 0.1 1008379
19:00−4nnw1197100 0.8 100825
22:00−5ne2397100 0.7 100822
2 march, tue
tue201:00−7n4495100 1.3 100864
04:00−12nw579593 0.1 1011104
07:00−14wnw579695 0.1 1014132
10:00−15w579597 0.1 1015169
13:00−14w569398 0.1 1016322
16:00−13wsw469198 0.0 1017407
19:00−15wsw459599 0.1 101739
22:00−17w349694 0.0 101738